Temp
56 56 56 56 57 56 51 45 37 47 52 39 40 35 41 47 47 50 48 45 42 38 40 37 36 38 44 49 47 40 43 36 26 34 45 45 42 38 35 21 21 25 24 29
55 55 56 55 55 55 46 41 42 48 47 33 34 40 42 45 44 44 44 44 46 46 40 35 38 41 48 50 46 41 41 33 22 28 35 40 36 39 39 36 30 29 20 29
54 54 54 55 55 56 48 41 34 40 42 41 37 35 36 37 45 44 46 44 45 42 40 43 38 41 47 48 48 50 48 35 31 25 31 35 34 38 40 35 23 28 30 34
54 54 54 54 54 55 47 42 36 41 32 35 37 37 36 34 35 42 43 40 42 40 35 37 37 41 43 46 48 43 42 30 32 35 36 37 36 36 38 34 35 28 35 35
54 53 53 53 53 54 42 35 37 39 36 38 35 36 34 34 37 38 36 36 40 38 35 38 34 38 38 36 41 39 42 31 31 29 37 35 32 37 38 37 39 37 38 36
53 53 53 53 53 50 42 42 43 40 36 36 34 34 34 34 38 40 40 40 38 34 40 44 42 45 44 44 39 37 39 33 28 25 30 31 27 34 36 38 40 39 32 41
53 52 52 52 53 50 43 42 40 35 29 34 33 37 37 37 38 35 39 41 37 42 47 45 45 42 41 42 42 43 38 36 30 25 27 18 36 43 43 41 43 42 40 40
52 52 52 52 52 52 41 41 39 36 29 31 33 35 35 36 37 36 37 41 45 46 40 35 31 29 32 37 42 40 42 37 27 27 21 29 36 39 39 37 39 41 40 41
52 52 52 52 52 52 41 39 41 38 31 28 36 31 32 27 26 30 36 43 45 40 35 31 26 23 28 28 31 35 37 38 34 25 23 20 35 40 42 41 33 42 42 40
51 52 52 52 52 52 44 39 42 35 28 32 33 28 28 32 28 27 31 34 35 39 29 27 27 25 32 26 26 26 27 29 31 31 27 28 40 44 43 30 37 41 40 40
51 52 52 52 52 52 45 39 42 38 32 34 38 38 32 31 30 25 31 30 30 32 29 29 28 25 30 30 34 27 29 25 26 30 25 22 42 39 37 43 41 41 39 39
51 51 51 51 50 51 49 36 43 42 36 34 39 41 42 42 40 34 32 31 33 36 33 30 30 27 28 31 26 35 29 34 28 31 32 42 43 42 44 45 43 40 39 40
51 51 50 51 50 50 47 37 38 38 31 32 33 33 40 44 43 45 31 35 36 36 39 35 34 31 31 26 30 34 35 41 35 33 39 42 45 45 45 46 43 42 42 41
51 51 51 51 51 51 50 37 38 36 33 27 29 42 36 42 43 42 42 40 41 41 40 35 33 31 37 32 33 31 38 38 38 34 38 41 44 45 45 46 44 42 43 42
49 50 50 50 50 50 45 38 39 41 33 25 28 36 40 43 42 40 41 40 36 33 31 32 31 35 34 33 33 32 38 38 37 37 41 43 41 42 45 45 43 41 41 40
49 49 49 49 49 49 38 31 38 41 40 31 26 33 33 40 39 38 38 39 39 35 33 33 36 39 37 30 29 37 43 43 43 42 41 41 40 41 42 44 43 42 40 40
49 48 49 49 49 39 34 30 37 45 41 31 22 22 33 37 38 37 37 40 39 36 35 34 36 37 39 33 31 43 44 42 41 42 42 38 41 41 42 43 44 44 41 40
48 48 48 48 48 45 36 41 46 46 37 33 20 20 28 36 32 31 36 34 34 35 35 36 36 35 34 30 36 45 45 41 39 40 40 40 40 40 40 42 42 41 41 40
47 47 48 40 36 30 33 47 47 43 36 23 25 23 22 35 33 34 33 34 29 34 32 33 35 32 29 34 38 42 42 40 40 39 38 37 37 38 38 40 40 39 40 40
47 39 33 25 32 45 42 36 29 33 33 31 27 32 28 33 33 32 31 32 32 27 31 34 31 29 38 40 42 43 42 39 37 35 33 34 34 37 36 37 40 40 40 40
36 31 26 33 44 35 28 25 27 27 26 30 31 31 28 36 30 31 33 31 32 28 28 29 26 26 34 41 41 41 39 37 36 37 37 37 36 36 35 36 37 38 40 40
36 35 38 33 25 16 16 15 26 28 25 31 30 31 33 34 37 32 31 30 30 25 29 29 25 30 35 36 34 33 34 35 35 36 36 35 36 35 35 35 35 36 38 39
36 30 20 25 14 18 10 6 19 21 31 32 32 31 33 31 33 32 30 26 27 29 27 26 28 33 32 30 31 30 31 33 33 34 34 34 33 33 34 34 35 35 36 37
27 17 13 16 11 14 17 21 26 29 31 31 31 32 31 32 30 31 27 27 28 23 22 21 26 30 31 30 32 31 29 30 28 30 31 31 28 30 30 32 34 35 35 36
21 18 13 9 23 28 29 30 28 31 33 32 30 31 31 31 30 30 25 23 20 21 22 25 27 30 31 29 29 30 30 29 29 29 26 22 24 26 29 30 32 34 34 34
19 11 15 22 23 24 26 26 26 31 29 29 30 30 30 29 30 23 19 19 18 23 24 26 29 28 28 28 29 29 30 30 29 30 30 30 29 29 28 29 30 31 31 31
14 13 20 24 22 23 23 25 27 30 26 24 31 29 29 31 26 26 24 20 27 27 28 28 28 30 27 27 28 29 29 28 28 28 27 27 27 26 26 27 27 29 29 30
MSLP
1022.55 1022.56 1022.56 1022.43 1022.24 1022.26 1022.58 1022.93 1023.48 1023.38 1023.18 1023.44 1022.75 1022.44 1021.80 1020.90 1020.01 1019.53 1019.37 1019.37 1019.51 1019.65 1019.59 1019.24 1018.80 1018.08 1017.45 1017.06 1017.42 1018.20 1018.45 1018.86 1018.72 1017.63 1016.29 1016.40 1016.90 1017.39 1018.33 1019.60 1019.89 1019.21 1017.67 1011.42
1022.97 1022.70 1022.59 1022.59 1022.54 1022.37 1022.93 1023.08 1023.40 1023.58 1023.60 1023.24 1022.74 1022.22 1021.60 1021.07 1020.67 1020.09 1020.00 1019.65 1019.55 1019.60 1019.82 1019.67 1018.62 1017.73 1017.07 1017.02 1017.49 1017.91 1018.48 1018.95 1019.01 1017.69 1017.10 1016.40 1016.67 1017.01 1017.46 1018.15 1018.38 1017.22 1016.90 1011.25
1023.28 1023.02 1022.81 1022.74 1022.70 1022.56 1022.89 1023.41 1023.68 1023.82 1023.50 1023.20 1023.13 1022.73 1022.02 1021.43 1020.60 1020.34 1020.12 1020.05 1020.06 1020.18 1020.01 1019.77 1019.11 1018.42 1017.91 1017.68 1017.62 1017.79 1018.15 1018.98 1019.51 1019.00 1018.16 1017.76 1017.03 1016.62 1016.85 1017.49 1017.23 1015.49 1014.14 1010.87
1023.63 1023.47 1023.40 1023.09 1022.90 1022.83 1023.07 1023.19 1023.53 1023.21 1023.26 1023.37 1023.24 1023.03 1022.65 1021.81 1021.38 1020.97 1020.86 1020.72 1020.75 1020.77 1020.45 1019.99 1019.54 1019.04 1018.60 1018.24 1017.93 1017.99 1018.36 1018.92 1019.23 1018.89 1018.43 1017.88 1016.65 1015.57 1014.92 1015.70 1014.70 1014.90 1011.41 1011.43
1023.99 1023.95 1023.83 1023.60 1023.38 1022.88 1023.48 1023.69 1023.70 1023.65 1023.44 1023.24 1023.21 1023.12 1022.64 1022.31 1021.77 1021.87 1021.50 1021.56 1021.19 1021.08 1021.05 1020.71 1020.52 1020.25 1019.74 1019.43 1018.82 1018.99 1018.94 1018.94 1019.07 1018.76 1018.21 1017.39 1015.97 1014.08 1013.35 1013.06 1012.71 1012.49 1011.45 1010.12
1024.16 1024.17 1024.02 1023.92 1023.64 1023.41 1023.76 1024.10 1023.92 1023.76 1023.69 1023.54 1023.41 1022.90 1022.71 1022.50 1022.19 1021.88 1021.70 1021.43 1021.35 1021.38 1020.71 1020.43 1020.44 1020.28 1020.17 1019.60 1019.57 1019.52 1019.38 1019.45 1019.54 1018.43 1018.05 1017.06 1014.68 1012.03 1011.76 1011.35 1010.89 1010.68 1010.61 1009.24
1024.63 1024.60 1024.35 1024.11 1023.95 1024.22 1024.26 1024.63 1024.65 1024.32 1023.92 1023.77 1023.37 1022.99 1022.95 1022.70 1022.45 1022.49 1022.13 1021.55 1021.28 1020.63 1020.25 1020.27 1019.79 1019.67 1019.37 1019.00 1018.59 1018.64 1018.71 1019.12 1019.56 1018.67 1018.25 1016.27 1012.26 1011.02 1010.81 1010.53 1009.91 1009.69 1009.81 1009.34
1024.65 1024.60 1024.46 1024.29 1024.13 1024.17 1024.40 1024.50 1024.71 1024.61 1024.31 1024.04 1023.81 1023.47 1023.29 1023.05 1022.75 1022.55 1022.11 1021.37 1020.60 1020.22 1020.68 1020.85 1020.16 1019.51 1018.83 1017.60 1016.87 1016.89 1017.29 1018.13 1018.82 1018.76 1018.29 1015.27 1012.16 1010.40 1010.07 1009.97 1009.35 1009.29 1009.40 1009.13
1024.46 1024.45 1024.40 1024.50 1024.21 1024.18 1024.41 1024.45 1024.46 1024.68 1024.60 1023.94 1023.81 1023.77 1023.76 1023.53 1023.15 1022.73 1021.75 1020.78 1020.16 1020.40 1020.62 1020.96 1020.32 1019.76 1018.67 1018.03 1017.24 1017.10 1017.11 1017.32 1017.84 1018.51 1017.93 1015.35 1011.57 1010.32 1010.03 1010.20 1009.57 1008.96 1009.10 1009.10
1024.34 1024.25 1024.30 1024.30 1024.09 1023.99 1024.25 1024.43 1024.30 1024.80 1024.84 1024.07 1023.89 1024.01 1023.56 1023.25 1023.05 1022.84 1022.04 1021.19 1020.36 1020.08 1020.62 1020.59 1020.12 1019.31 1018.85 1017.86 1017.44 1017.56 1017.59 1017.61 1017.19 1017.46 1017.03 1014.27 1011.11 1010.39 1010.22 1010.31 1009.38 1008.92 1009.01 1008.96
1024.04 1023.91 1023.83 1023.77 1023.76 1023.76 1024.03 1024.09 1023.99 1024.41 1024.40 1023.76 1023.36 1023.01 1023.40 1023.25 1023.23 1022.99 1022.24 1021.69 1020.33 1020.18 1020.14 1019.78 1019.34 1018.64 1017.78 1017.16 1016.62 1016.50 1016.62 1017.06 1016.82 1016.94 1016.51 1014.34 1010.23 1010.49 1010.07 1008.57 1008.38 1008.84 1008.96 1008.94
1023.72 1023.68 1023.56 1023.47 1023.52 1023.50 1023.51 1023.93 1023.57 1023.67 1024.01 1023.28 1022.50 1022.08 1021.96 1021.87 1022.40 1022.72 1022.20 1021.82 1020.99 1020.14 1018.89 1018.57 1018.02 1017.65 1016.85 1016.15 1015.51 1014.97 1015.29 1014.66 1015.36 1014.75 1012.89 1010.71 1009.97 1009.08 1008.57 1008.44 1008.46 1008.81 1008.96 1008.88
1023.15 1023.19 1023.22 1023.10 1023.11 1023.17 1023.32 1023.55 1023.35 1023.54 1023.42 1022.14 1021.58 1020.52 1020.29 1020.27 1020.58 1020.84 1021.47 1020.02 1020.43 1019.83 1019.40 1018.95 1017.07 1016.48 1016.13 1015.75 1014.92 1014.53 1013.72 1013.20 1013.16 1013.14 1010.98 1010.20 1009.39 1008.82 1008.52 1008.37 1008.35 1008.68 1008.85 1008.73
1022.62 1022.60 1022.55 1022.52 1022.60 1022.61 1022.62 1023.35 1023.21 1023.39 1023.31 1022.19 1019.93 1019.28 1019.11 1018.30 1018.78 1019.21 1018.90 1018.46 1019.42 1018.91 1019.09 1018.32 1017.63 1015.86 1015.15 1015.04 1014.56 1014.30 1013.33 1012.17 1011.52 1010.73 1009.90 1009.46 1008.58 1008.28 1008.16 1008.28 1008.35 1008.62 1008.83 1008.87
1022.14 1022.16 1022.12 1022.16 1022.20 1022.15 1022.14 1022.44 1022.41 1022.41 1023.00 1021.44 1019.59 1018.99 1017.87 1017.48 1017.62 1017.50 1017.47 1017.76 1018.03 1018.04 1017.87 1016.86 1015.44 1015.21 1015.13 1014.40 1014.31 1013.21 1012.36 1011.45 1010.20 1009.01 1008.97 1008.81 1008.40 1007.95 1008.05 1008.31 1008.47 1008.78 1008.81 1008.99
1021.51 1021.58 1021.63 1021.74 1021.77 1021.83 1022.31 1021.95 1021.01 1020.69 1021.28 1021.40 1019.61 1017.52 1016.49 1015.80 1015.59 1015.73 1015.72 1015.68 1016.12 1016.63 1015.84 1015.27 1014.51 1013.62 1013.62 1013.39 1012.37 1010.14 1009.35 1009.08 1008.24 1008.23 1008.27 1008.45 1008.48 1008.49 1008.42 1008.45 1008.70 1008.95 1009.02 1008.87
1020.69 1020.78 1020.86 1020.94 1020.98 1021.54 1021.89 1021.34 1021.02 1020.75 1021.14 1020.95 1020.26 1018.38 1016.04 1015.36 1014.95 1014.54 1014.11 1014.19 1014.00 1013.92 1014.08 1013.60 1013.32 1012.95 1012.68 1012.09 1010.83 1009.08 1008.17 1007.58 1007.85 1007.85 1008.11 1008.57 1008.60 1008.59 1008.70 1008.72 1008.86 1009.03 1009.19 1009.16
1020.01 1020.04 1020.14 1020.25 1020.34 1020.40 1020.41 1019.88 1019.79 1020.08 1020.89 1020.86 1020.11 1018.21 1016.40 1015.02 1014.56 1014.09 1013.42 1012.69 1012.88 1012.78 1012.44 1012.33 1012.12 1012.16 1011.75 1010.59 1009.09 1008.70 1008.24 1007.90 1007.84 1007.84 1007.88 1008.17 1008.46 1008.74 1008.89 1008.95 1009.19 1009.25 1009.31 1009.42
1019.21 1019.40 1019.59 1020.10 1019.96 1019.90 1018.84 1018.37 1018.47 1019.08 1020.03 1019.47 1018.56 1017.20 1015.66 1014.74 1013.87 1013.24 1012.97 1012.50 1012.01 1011.81 1011.51 1011.35 1011.43 1010.79 1009.59 1008.58 1007.96 1007.58 1007.53 1007.58 1007.61 1008.04 1008.34 1008.63 1008.90 1009.01 1009.06 1009.13 1009.24 1009.30 1009.43 1009.57
1018.24 1019.20 1019.76 1019.66 1018.77 1018.02 1018.15 1017.60 1017.88 1017.66 1017.40 1017.35 1015.91 1015.12 1013.96 1013.95 1013.09 1012.61 1012.45 1011.36 1010.69 1010.60 1010.26 1010.23 1009.82 1008.49 1007.74 1007.24 1006.85 1006.57 1006.74 1007.13 1007.60 1008.36 1008.80 1008.87 1009.05 1009.23 1009.12 1009.31 1009.48 1009.42 1009.41 1009.57
1018.41 1018.82 1019.02 1018.39 1017.88 1018.03 1018.21 1017.90 1016.64 1015.89 1015.41 1014.39 1012.74 1012.93 1012.09 1012.48 1012.26 1011.82 1011.51 1010.08 1009.56 1009.31 1009.13 1009.19 1008.70 1007.81 1006.64 1006.39 1006.48 1006.34 1006.62 1007.06 1007.54 1007.65 1008.05 1008.49 1008.84 1009.23 1009.39 1009.55 1009.71 1009.69 1009.51 1009.52
1017.71 1018.00 1018.18 1018.38 1018.38 1018.94 1018.77 1017.62 1016.13 1014.52 1012.78 1011.59 1011.17 1010.58 1010.54 1010.74 1011.03 1010.95 1010.08 1009.34 1009.27 1008.84 1008.84 1008.93 1008.41 1006.81 1005.88 1005.93 1006.28 1006.73 1007.18 1007.60 1007.97 1008.16 1008.52 1008.85 1009.12 1009.36 1009.55 1009.65 1009.82 1009.77 1009.60 1009.53
1018.04 1018.41 1019.02 1019.33 1019.43 1019.21 1018.60 1016.73 1014.40 1012.72 1011.40 1010.88 1010.23 1009.67 1009.31 1009.88 1009.80 1009.49 1008.92 1008.84 1009.05 1009.07 1009.17 1008.90 1007.50 1006.42 1006.79 1007.08 1007.36 1007.77 1008.00 1008.26 1008.55 1008.75 1008.91 1009.14 1009.38 1009.60 1009.73 1009.80 1009.84 1009.73 1009.65 1009.63
1017.97 1018.98 1019.44 1019.36 1018.57 1017.31 1015.91 1014.96 1013.98 1012.73 1011.76 1011.11 1010.39 1009.55 1009.03 1008.64 1008.83 1008.52 1008.57 1008.88 1009.02 1009.42 1009.32 1008.12 1006.67 1006.53 1007.13 1007.69 1007.94 1008.27 1008.71 1008.99 1009.12 1009.30 1009.52 1009.71 1010.04 1010.07 1010.04 1010.05 1010.04 1009.88 1009.82 1009.89
1018.06 1018.77 1018.87 1017.82 1016.22 1015.54 1014.56 1014.45 1013.68 1012.72 1012.11 1011.23 1010.37 1009.11 1008.47 1008.03 1007.97 1007.92 1008.76 1009.27 1009.26 1008.72 1007.99 1007.54 1007.57 1007.73 1008.07 1008.41 1008.58 1008.86 1009.25 1009.43 1009.57 1009.83 1010.20 1010.55 1010.46 1010.56 1010.61 1010.53 1010.36 1010.16 1010.23 1010.37
1018.14 1018.55 1017.87 1016.51 1016.10 1015.28 1014.69 1014.09 1013.55 1013.02 1012.36 1011.46 1010.22 1008.68 1007.44 1007.17 1007.10 1007.76 1008.09 1008.67 1008.26 1007.69 1007.76 1007.92 1008.00 1008.34 1008.83 1009.08 1009.23 1009.44 1009.70 1009.92 1010.10 1010.30 1010.55 1010.70 1010.93 1011.07 1011.13 1011.13 1010.90 1010.83 1010.92 1011.16
1018.20 1017.76 1016.57 1016.24 1015.84 1015.18 1014.43 1014.01 1013.52 1012.99 1012.50 1010.96 1009.03 1007.70 1006.60 1006.44 1006.89 1007.42 1007.54 1007.77 1007.86 1008.08 1008.34 1008.50 1008.82 1009.03 1009.43 1009.64 1009.89 1010.17 1010.27 1010.44 1010.69 1011.00 1011.22 1011.39 1011.52 1011.48 1011.60 1011.77 1011.84 1011.78 1011.93 1012.05
Wind_Speed
7 5 4 6 7 1 5 2 3 1 1 4 3 4 5 3 4 3 4 1 3 3 7 5 4 6 6 5 7 5 6 4 5 12 12 6 6 8 8 6 6 6 4 25
12 7 5 7 7 8 2 2 1 1 0 5 5 3 5 7 6 8 4 3 5 5 3 4 4 5 3 7 7 5 2 4 5 11 6 4 1 3 3 3 2 18 7 16
16 15 11 7 6 9 1 1 2 1 2 1 2 0 3 5 5 4 4 3 3 4 5 6 6 6 5 2 6 9 5 4 7 11 9 5 15 16 14 7 5 11 16 30
14 16 16 16 13 6 3 2 2 0 3 4 6 3 3 3 3 3 7 3 10 13 6 7 10 7 7 6 9 5 7 5 6 10 12 11 18 23 22 16 20 9 25 19
11 12 13 14 16 9 2 1 2 2 2 4 9 9 7 11 12 4 6 9 7 5 3 5 6 8 2 5 6 4 3 5 3 7 12 11 15 25 21 18 17 15 21 26
9 10 11 12 15 8 2 3 3 1 3 3 2 2 4 5 4 6 11 7 6 9 13 8 3 7 11 12 12 8 6 2 1 7 4 12 12 9 4 5 6 6 7 14
7 7 8 9 10 6 1 1 1 1 2 2 2 2 1 4 6 6 9 5 3 6 5 7 9 8 11 17 17 13 10 7 4 5 6 5 8 12 9 9 8 8 7 7
5 7 7 7 7 7 3 1 1 1 2 2 4 7 6 7 8 9 5 10 11 7 3 7 8 5 6 12 17 15 16 10 3 5 4 12 14 3 4 2 8 1 6 7
5 5 6 7 7 6 3 2 1 1 2 5 5 3 3 3 2 6 8 12 10 2 4 3 9 6 2 6 6 5 2 6 8 3 4 7 5 1 2 3 6 4 5 5
9 8 6 6 7 8 0 3 1 1 2 5 5 5 5 3 0 4 6 5 4 4 3 7 10 10 4 8 6 1 2 1 13 10 8 11 10 7 4 3 5 1 4 4
11 11 10 10 9 9 4 4 3 3 3 6 11 11 8 4 3 4 4 6 4 2 6 5 5 6 8 11 12 7 8 6 5 5 4 15 7 3 6 4 1 0 2 2
10 11 11 11 11 12 7 2 2 2 4 6 5 12 13 16 14 12 6 7 10 5 4 4 3 5 3 9 13 7 10 9 8 12 12 6 6 5 4 3 2 1 3 3
13 10 12 12 10 11 9 3 2 1 3 6 6 12 13 14 18 16 11 10 7 10 6 4 4 5 2 5 10 13 6 9 7 4 9 18 14 7 4 4 2 1 3 3
16 14 13 12 12 13 9 2 2 2 3 5 8 5 7 8 11 17 21 24 16 17 8 11 9 4 3 3 5 3 6 7 11 7 8 9 8 7 6 3 1 2 3 3
16 16 13 12 13 13 7 3 4 6 5 5 9 12 21 21 19 18 17 16 17 10 8 7 12 5 4 3 1 10 11 14 10 8 7 8 6 3 4 3 1 1 3 3
17 16 16 15 13 15 3 4 3 7 7 5 5 5 8 17 9 13 16 14 13 9 6 7 5 3 8 5 5 9 18 13 7 5 4 3 3 3 1 4 2 1 1 1
18 18 18 17 16 3 4 5 3 5 4 2 5 7 5 5 3 4 9 14 8 5 5 5 4 5 8 3 11 16 10 8 7 6 6 2 4 4 4 2 2 2 2 0
17 18 17 17 17 12 6 9 21 14 6 3 3 7 5 5 3 4 2 3 4 5 3 3 3 4 3 8 8 17 15 5 5 7 5 3 4 4 3 3 2 2 2 3
20 18 14 5 3 4 6 10 17 6 7 5 6 6 8 3 3 2 2 3 4 4 5 5 6 6 9 10 16 15 12 9 7 6 5 4 4 4 3 2 2 2 2 3
12 4 2 3 5 2 5 4 3 7 6 6 7 6 10 5 3 2 3 4 4 5 7 5 5 5 7 8 10 8 8 9 9 7 4 4 4 5 3 2 0 1 2 1
3 3 4 4 5 0 1 3 5 5 5 7 8 15 14 6 6 4 4 3 3 4 4 6 4 4 6 10 9 7 6 8 6 5 6 5 5 4 2 3 3 3 3 2
7 5 0 3 3 3 2 5 5 7 7 5 5 6 8 6 4 6 5 4 2 3 3 3 3 6 3 3 4 6 7 7 7 5 6 4 4 3 3 3 3 4 4 3
2 1 2 2 3 4 5 6 6 4 2 1 3 3 4 3 4 4 3 4 3 2 2 3 6 2 4 5 5 5 5 5 6 5 4 4 2 1 3 2 3 3 3 3
2 5 5 6 5 6 6 4 4 4 3 6 6 2 4 3 4 3 4 2 3 2 3 8 4 4 6 5 4 5 5 5 5 5 4 5 3 2 2 1 2 2 2 3
3 4 6 7 5 4 3 4 5 3 6 4 5 4 3 3 3 2 4 2 3 6 6 2 1 5 5 4 3 6 6 5 5 4 4 3 4 4 4 4 3 5 5 6
2 1 2 4 2 6 4 4 5 4 5 5 4 5 4 6 3 3 5 6 7 3 2 2 3 5 5 5 5 5 5 6 6 5 5 5 6 6 5 4 6 6 6 7
3 5 4 6 4 7 3 1 4 3 5 4 6 4 4 3 4 4 4 4 1 4 3 3 5 6 5 6 6 6 6 7 7 6 6 6 5 6 6 9 6 7 7 8
Wind_Direction
352 354 333 351 349 169 110 146 219 331 104 221 161 214 199 310 306 342 267 296 211 235 300 279 261 236 234 159 146 182 215 217 259 231 262 217 213 229 171 133 257 233 242 275
20 17 2 354 4 158 136 184 181 46 120 242 216 257 246 226 236 270 255 238 221 207 231 296 253 269 247 158 155 178 162 263 321 328 359 0 31 252 214 254 161 257 257 271
35 35 37 24 21 5 153 35 215 177 219 348 331 225 244 242 231 251 273 225 20 340 307 279 275 313 309 231 194 180 151 211 192 242 252 312 290 272 270 218 242 279 241 275
36 35 30 29 19 351 100 156 263 24 196 227 224 188 334 324 320 304 13 308 221 230 242 258 263 262 325 322 275 178 170 228 237 262 276 280 276 280 280 258 249 240 278 271
31 31 27 23 10 356 90 194 178 166 323 300 199 224 218 237 263 230 261 246 294 12 352 288 295 332 342 270 350 334 298 271 289 282 278 285 290 277 267 257 260 248 260 273
24 21 21 20 16 27 30 351 0 358 233 204 213 204 186 215 201 251 232 238 274 268 262 264 274 281 277 256 271 268 241 214 278 265 316 315 289 259 207 239 213 218 260 277
20 19 21 22 25 47 117 135 264 295 253 221 247 344 308 267 242 239 272 234 243 243 315 299 296 273 268 266 258 230 236 206 235 288 355 259 248 301 244 241 263 264 286 287
6 7 5 2 8 15 73 308 149 221 261 263 304 272 283 311 297 284 274 271 244 250 255 292 290 283 275 245 244 232 211 198 227 250 214 296 290 288 180 178 288 211 280 304
296 325 340 345 348 336 72 287 270 206 268 227 253 309 304 264 258 292 239 259 263 229 192 193 259 252 316 290 327 9 72 214 199 119 244 255 245 266 106 107 284 216 305 303
294 289 289 303 317 317 309 249 107 108 250 265 274 256 260 218 173 251 283 272 265 179 199 238 245 244 245 239 214 207 83 291 220 231 244 276 254 241 135 249 253 320 287 301
282 278 284 282 280 290 313 253 192 169 236 241 236 250 246 278 222 239 295 358 284 193 208 212 208 227 215 227 226 180 176 183 197 197 234 264 196 114 197 211 58 341 285 295
283 285 289 288 292 283 278 261 260 185 229 244 265 242 234 236 236 249 219 255 284 295 227 226 192 222 217 231 247 218 224 191 189 195 205 252 229 262 233 202 160 244 255 273
274 272 282 282 281 282 274 242 224 61 274 277 223 251 245 235 231 213 238 235 212 248 246 303 256 213 158 215 247 260 250 199 208 155 246 250 258 255 222 214 206 221 220 255
273 271 273 280 290 295 288 215 223 132 282 271 269 232 247 218 209 216 227 248 245 251 250 244 247 268 160 238 278 316 280 192 206 250 268 299 269 225 191 209 325 246 232 200
269 277 279 284 286 286 299 204 215 193 190 262 282 305 271 254 248 241 238 236 233 232 217 241 227 225 197 198 162 257 237 238 207 229 223 227 266 171 143 169 149 311 247 168
262 265 266 267 272 282 32 310 279 215 195 248 254 278 269 267 228 233 243 236 229 207 201 210 233 279 179 202 228 251 232 218 195 198 172 172 147 120 93 143 145 75 263 299
259 256 258 260 266 241 198 210 214 151 132 259 300 282 258 289 289 236 234 228 218 179 180 208 199 196 202 210 243 254 271 200 175 167 129 200 199 219 171 160 201 136 129 19
272 263 260 264 270 283 265 239 249 252 258 241 259 266 275 169 235 253 247 180 164 196 201 181 207 140 186 234 233 237 261 232 185 190 188 164 133 147 181 157 182 177 203 173
265 263 267 295 236 210 232 263 249 209 199 205 216 219 273 163 239 258 233 209 181 171 207 199 178 190 220 208 213 225 205 193 190 176 162 162 212 240 254 209 226 213 213 195
263 221 166 257 223 188 19 309 218 205 198 213 245 196 232 185 191 238 257 208 207 196 202 151 218 241 217 222 226 215 192 171 142 129 191 206 236 219 195 177 227 263 258 219
137 168 209 238 276 123 200 247 235 194 220 212 225 215 233 187 233 224 209 230 194 205 197 178 225 250 219 203 207 206 173 164 169 129 121 130 153 172 205 274 273 280 254 230
180 179 54 18 45 31 130 230 243 227 227 194 210 222 203 206 184 208 214 226 182 243 125 182 258 250 238 190 154 128 133 136 136 137 148 158 184 198 210 238 262 258 245 238
82 140 52 189 278 225 199 241 255 244 265 307 291 260 165 153 202 219 211 187 207 123 158 237 235 201 111 111 96 91 89 109 130 129 119 138 163 172 200 242 258 264 232 228
139 140 224 196 235 233 204 236 285 287 276 304 298 247 228 192 175 199 199 142 126 156 211 228 243 163 135 131 132 131 140 139 122 104 88 108 113 122 65 5 279 262 159 139
163 132 226 228 243 309 271 317 285 295 292 320 292 236 218 205 217 161 100 118 226 209 229 265 27 83 104 115 111 124 132 125 111 111 102 103 94 96 80 27 46 86 94 97
90 334 278 259 286 281 304 289 298 294 332 280 226 257 208 208 171 136 198 143 222 235 188 200 107 100 96 91 91 98 108 109 102 96 97 94 95 96 86 60 55 66 83 84
222 256 228 249 250 265 250 265 283 331 292 258 256 223 230 106 153 195 191 206 53 128 98 74 93 97 92 96 88 80 84 86 83 85 76 80 83 86 73 73 43 66 67 73